This is the latest recevied weather packets stored in our database for station/object KC9Q. If no packets are shown the sender has not sent any weather packets the latest 1 day(s).
| Time | Temp. | Humidity | Pressure | Rain* | Wind** | Luminosity | Snow |
|---|---|---|---|---|---|---|---|
| 1778016685 | 17.22° C | 99% | 1006.3 hPa | 1.27 mm | 1.34 m/s, 178° | 58 W/m² | - |
| 1778016380 | 17.22° C | 99% | 1006.1 hPa | 1.78 mm | 1.79 m/s, 201° | 72 W/m² | - |
| 1778016079 | 17.22° C | 99% | 1006.3 hPa | 2.29 mm | 1.79 m/s, 211° | 58 W/m² | - |
| 1778015775 | 17.22° C | 99% | 1006.2 hPa | 3.05 mm | 2.68 m/s, 161° | 70 W/m² | - |
| 1778015472 | 17.22° C | 99% | 1006.4 hPa | 2.29 mm | 2.68 m/s, 164° | 67 W/m² | - |
| 1778015169 | 17.22° C | 99% | 1006.4 hPa | 2.29 mm | 1.79 m/s, 195° | 45 W/m² | - |
| 1778014866 | 17.22° C | 99% | 1006.5 hPa | 1.78 mm | 3.58 m/s, 208° | 44 W/m² | - |
| 1778014564 | 17.22° C | 99% | 1006.4 hPa | 2.29 mm | 1.79 m/s, 186° | 27 W/m² | - |
| 1778014261 | 17.22° C | 99% | 1006.3 hPa | 2.29 mm | 2.24 m/s, 191° | 38 W/m² | - |
| 1778013958 | 17.22° C | 99% | 1006.3 hPa | 1.27 mm | 2.68 m/s, 174° | 60 W/m² | - |
| 1778013655 | 17.78° C | 99% | 1006.3 hPa | 1.78 mm | 1.79 m/s, 164° | 84 W/m² | - |
| 1778013352 | 17.22° C | 99% | 1006.2 hPa | 2.29 mm | 1.79 m/s, 221° | 91 W/m² | - |
| 1778013049 | 17.22° C | 99% | 1006.2 hPa | 2.29 mm | 1.34 m/s, 210° | 95 W/m² | - |
| 1778012745 | 17.22° C | 99% | 1006.5 hPa | 2.29 mm | 1.79 m/s, 150° | 73 W/m² | - |
| 1778012441 | 17.22° C | 99% | 1006.5 hPa | 1.78 mm | 1.79 m/s, 215° | 67 W/m² | - |
| 1778012138 | 17.22° C | 99% | 1006.3 hPa | 1.78 mm | 2.24 m/s, 231° | 76 W/m² | - |
| 1778011836 | 17.22° C | 99% | 1006.6 hPa | 1.78 mm | 1.79 m/s, 226° | 66 W/m² | - |
| 1778011533 | 17.22° C | 99% | 1006.9 hPa | 1.78 mm | 1.79 m/s, 199° | 68 W/m² | - |
| 1778011230 | 17.22° C | 99% | 1006.7 hPa | 1.78 mm | 1.79 m/s, 192° | 69 W/m² | - |
| 1778010926 | 17.22° C | 99% | 1006.6 hPa | 1.78 mm | 0.89 m/s, 206° | 62 W/m² | - |
| 1778010624 | 17.22° C | 99% | 1006.6 hPa | 1.27 mm | 1.34 m/s, 217° | 93 W/m² | - |
| 1778010321 | 17.22° C | 99% | 1006.7 hPa | 1.27 mm | 2.24 m/s, 203° | 82 W/m² | - |
| 1778010016 | 17.22° C | 99% | 1006.7 hPa | 1.78 mm | 1.79 m/s, 175° | 81 W/m² | - |
| 1778009714 | 17.22° C | 99% | 1006.5 hPa | 1.27 mm | 1.34 m/s, 209° | 71 W/m² | - |
| 1778009411 | 17.22° C | 99% | 1006.7 hPa | 0.51 mm | 1.34 m/s, 211° | 94 W/m² | - |
* Rain latest hour (hover to see other rain measurements)
** Current wind speed in m/s (hover to see current wind gust speed)